Date String (YYYY-MM-DD hh:mm:ss) UTC,Instrument flags,Ambient pressure (hPa),Sample flow (lpm),Bypass flow (lpm),Sample temperature (°C),Ambient temperature (°C),ASC tube jacket temperature (°C),LED temperature (°C),Box temperature (°C),Sample RH (%),Span deviation,Mass concentration (μg/m³),Mass concentration (μg/m³),Mass concentration (μg/m³)
DateTimeUTC,F1_M11,P_M11,Q1_M11,Q2_M11,T1_M11,T2_M11,T3_M11,T4_M11,T5_M11,U1_M11,ZSPAN_M11,X0_M11,X2_M11,X1_M11
2022-07-15 19:00:00,,0831.2,5.01,0.00,29.2,27.3,00.0,37.9,31.0,30.2,0000.0,0011.90,0004.78,0003.98
2022-07-15 19:01:00,,0831.2,5.00,0.00,29.2,27.5,00.0,37.9,31.1,30.1,0000.0,0012.22,0004.78,0003.99
2022-07-15 19:02:00,,0831.2,4.99,0.00,29.2,27.7,00.0,37.9,31.1,29.7,0000.0,0012.61,0004.80,0004.00
2022-07-15 19:03:00,,0831.2,5.01,0.00,29.2,27.9,00.0,37.9,31.2,29.7,0000.0,0012.98,0004.80,0004.01
2022-07-15 19:04:00,,0831.2,5.00,0.00,29.3,28.1,00.0,37.9,31.3,29.4,0000.0,0013.31,0004.83,0004.02
2022-07-15 19:05:00,,0831.2,5.00,0.00,29.3,27.6,00.0,37.9,31.3,29.6,0000.0,0012.79,0004.82,0004.03
2022-07-15 19:06:00,,0831.2,5.00,0.00,29.3,27.1,00.0,37.8,31.2,29.5,0000.0,0012.78,0004.79,0004.03
2022-07-15 19:07:00,,0831.2,4.99,0.00,29.2,27.0,00.0,37.8,31.1,29.7,0000.0,0012.41,0004.76,0004.05
2022-07-15 19:08:00,,0831.2,5.00,0.00,29.2,27.1,00.0,37.8,31.0,30.0,0000.0,0012.31,0004.76,0004.06
2022-07-15 19:09:00,,0831.2,5.00,0.00,29.2,27.3,00.0,37.9,31.0,30.2,0000.0,0012.42,0004.81,0004.07
2022-07-15 19:10:00,,0831.2,5.01,0.00,29.2,27.5,00.0,37.9,31.0,30.4,0000.0,0011.91,0004.87,0004.08
2022-07-15 19:11:00,,0831.2,5.00,0.00,29.2,27.7,00.0,37.9,31.1,30.6,0000.0,0012.81,0004.90,0004.09
2022-07-15 19:12:00,,0831.2,4.99,0.00,29.3,27.9,00.0,37.9,31.2,31.3,0000.0,0013.03,0004.96,0004.10
2022-07-15 19:13:00,,0831.2,5.00,0.00,29.3,28.1,00.0,37.9,31.3,31.6,0000.0,0012.77,0004.98,0004.12
2022-07-15 19:14:00,,0831.2,4.99,0.00,29.3,27.7,00.0,37.9,31.3,30.2,0000.0,0012.39,0005.00,0004.13
2022-07-15 19:15:00,,0831.2,5.00,0.00,29.3,27.2,00.0,37.9,31.2,30.1,0000.0,0012.61,0005.04,0004.14
2022-07-15 19:16:00,,0831.2,5.01,0.00,29.3,27.1,00.0,37.8,31.1,30.6,0000.0,0013.02,0005.05,0004.15
2022-07-15 19:17:00,,0831.1,5.01,0.00,29.2,27.2,00.0,37.9,31.0,30.7,0000.0,0011.98,0005.08,0004.17
2022-07-15 19:18:00,,0831.1,4.99,0.00,29.2,27.4,00.0,37.9,31.0,30.2,0000.0,0012.84,0005.17,0004.19
2022-07-15 19:19:00,,0831.0,5.01,0.00,29.2,27.6,00.0,37.9,31.1,29.9,0000.0,0013.32,0005.19,0004.21
2022-07-15 19:20:00,,0831.0,5.00,0.00,29.3,27.8,00.0,37.9,31.2,30.7,0000.0,0013.09,0005.17,0004.22
2022-07-15 19:21:00,,0831.0,5.00,0.00,29.3,28.0,00.0,37.9,31.3,30.8,0000.0,0013.32,0005.15,0004.21
2022-07-15 19:22:00,,0831.0,4.99,0.00,29.3,28.0,00.0,37.9,31.3,30.2,0000.0,0012.31,0005.12,0004.21
2022-07-15 19:23:00,,0831.0,5.00,0.00,29.3,27.5,00.0,37.9,31.2,31.5,0000.0,0012.66,0005.07,0004.21
2022-07-15 19:24:00,,0831.0,5.00,0.00,29.3,27.1,00.0,37.9,31.2,30.4,0000.0,0013.37,0005.08,0004.21
2022-07-15 19:25:00,,0830.9,4.99,0.00,29.3,27.1,00.0,37.9,31.1,30.0,0000.0,0013.31,0005.05,0004.20
2022-07-15 19:26:00,,0830.9,5.00,0.00,29.2,27.3,00.0,37.9,31.0,30.0,0000.0,0012.94,0005.01,0004.19
2022-07-15 19:27:00,,0830.9,5.00,0.00,29.2,27.5,00.0,37.9,31.1,30.2,0000.0,0012.58,0005.00,0004.20
2022-07-15 19:28:00,,0830.9,5.00,0.00,29.2,27.7,00.0,37.9,31.1,30.2,0000.0,0012.54,0004.99,0004.19
2022-07-15 19:29:00,,0830.9,5.00,0.00,29.3,27.9,00.0,37.9,31.2,30.8,0000.0,0012.71,0004.96,0004.18
2022-07-15 19:30:00,,0830.9,5.00,0.00,29.3,28.1,00.0,37.9,31.3,29.5,0000.0,0012.56,0004.95,0004.19
2022-07-15 19:31:00,,0830.9,5.01,0.00,29.3,27.8,00.0,37.9,31.3,29.4,0000.0,0012.58,0004.97,0004.21
2022-07-15 19:32:00,,0830.8,4.99,0.00,29.3,27.3,00.0,37.9,31.2,29.3,0000.0,0012.56,0005.03,0004.23
2022-07-15 19:33:00,,0830.8,5.00,0.00,29.3,27.2,00.0,37.9,31.2,29.3,0000.0,0012.60,0005.11,0004.26
2022-07-15 19:34:00,,0830.7,4.99,0.00,29.2,27.3,00.0,37.9,31.1,30.0,0000.0,0012.13,0005.16,0004.28
2022-07-15 19:35:00,,0830.8,5.00,0.00,29.2,27.4,00.0,37.9,31.1,29.9,0000.0,0011.89,0005.13,0004.30
2022-07-15 19:36:00,,0830.8,5.00,0.00,29.2,27.6,00.0,37.9,31.1,29.7,0000.0,0013.28,0005.17,0004.32
2022-07-15 19:37:00,,0830.8,4.99,0.00,29.3,27.9,00.0,37.9,31.2,29.3,0000.0,0013.47,0005.20,0004.34
2022-07-15 19:38:00,,0830.8,5.00,0.00,29.3,28.0,00.0,37.9,31.3,29.2,0000.0,0013.76,0005.22,0004.35
2022-07-15 19:39:00,,0830.7,5.00,0.00,29.3,27.7,00.0,37.9,31.3,29.0,0000.0,0014.79,0005.27,0004.34
2022-07-15 19:40:00,,0830.8,5.00,0.00,29.3,27.2,00.0,37.9,31.2,29.5,0000.0,0014.37,0005.28,0004.35
2022-07-15 19:41:00,,0830.7,5.00,0.00,29.3,27.1,00.0,37.9,31.1,29.6,0000.0,0014.38,0005.28,0004.35
2022-07-15 19:42:00,,0830.7,5.00,0.00,29.2,27.2,00.0,37.9,31.1,29.7,0000.0,0015.13,0005.28,0004.36
2022-07-15 19:43:00,,0830.7,5.00,0.00,29.2,27.4,00.0,37.9,31.1,29.3,0000.0,0015.44,0005.28,0004.36
2022-07-15 19:44:00,,0830.6,4.99,0.00,29.2,27.6,00.0,37.9,31.1,29.0,0000.0,0016.57,0005.29,0004.36
2022-07-15 19:45:00,,0830.6,4.99,0.00,29.3,27.8,00.0,37.9,31.2,29.3,0000.0,0017.41,0005.25,0004.36
2022-07-15 19:46:00,,0830.6,5.01,0.00,29.3,28.0,00.0,38.0,31.3,29.5,0000.0,0017.38,0005.27,0004.37
2022-07-15 19:47:00,,0830.6,4.99,0.00,29.3,28.0,00.0,37.9,31.3,29.0,0000.0,0015.74,0005.25,0004.36
2022-07-15 19:48:00,,0830.6,5.00,0.00,29.3,27.5,00.0,37.9,31.3,29.1,0000.0,0016.15,0005.23,0004.36
2022-07-15 19:49:00,,0830.6,4.98,0.00,29.3,27.1,00.0,37.9,31.2,29.4,0000.0,0015.96,0005.22,0004.36
2022-07-15 19:50:00,,0830.5,5.00,0.00,29.3,27.1,00.0,37.9,31.1,29.4,0000.0,0015.41,0005.19,0004.37
2022-07-15 19:51:00,,0830.5,4.99,0.00,29.2,27.3,00.0,37.9,31.1,29.9,0000.0,0015.68,0005.18,0004.36
2022-07-15 19:52:00,,0830.5,5.00,0.00,29.2,27.5,00.0,37.9,31.1,30.2,0000.0,0015.94,0005.22,0004.36
2022-07-15 19:53:00,,0830.5,5.01,0.00,29.2,27.7,00.0,37.9,31.1,30.2,0000.0,0015.37,0005.22,0004.36
2022-07-15 19:54:00,,0830.5,5.00,0.00,29.3,27.9,00.0,37.9,31.2,29.6,0000.0,0015.45,0005.17,0004.35
2022-07-15 19:55:00,,0830.4,5.00,0.00,29.3,28.1,00.0,38.0,31.3,30.0,0000.0,0015.15,0005.17,0004.36
2022-07-15 19:56:00,,0830.4,4.99,0.00,29.4,28.1,00.0,38.0,31.3,29.7,0000.0,0015.42,0005.15,0004.37
2022-07-15 19:57:00,,0830.4,5.00,0.00,29.4,27.6,00.0,37.9,31.3,29.7,0000.0,0016.18,0005.15,0004.37
2022-07-15 19:58:00,,0830.4,4.99,0.00,29.3,27.2,00.0,37.9,31.2,30.5,0000.0,0017.33,0005.20,0004.39
2022-07-15 19:59:00,,0830.4,5.00,0.00,29.3,27.2,00.0,37.9,31.1,29.4,0000.0,0018.24,0005.24,0004.39
